Time,TemperatureF,DewpointF,PressureIn,WindDirection,WindDirectionDegrees,WindSpeedMPH,WindSpeedGustMPH,Humidity,HourlyPrecipIn,Conditions,Clouds,dailyrainin,SoftwareType,DateUTC
2013-06-24 00:01:00,66.6,64.2,30.02,NNW,327,0.0,7.0,92,0.00,,,0.00,Wunderground v.1.15,2013-06-24 04:01:00,
2013-06-24 00:02:00,66.6,63.9,30.02,NNW,328,0.0,7.0,91,0.00,,,0.00,Wunderground v.1.15,2013-06-24 04:02:00,
2013-06-24 00:03:00,66.6,63.9,30.02,NNW,327,0.0,7.0,91,0.00,,,0.00,Wunderground v.1.15,2013-06-24 04:03:00,
2013-06-24 00:04:00,66.5,63.8,30.02,NNW,328,0.0,7.0,91,0.00,,,0.00,Wunderground v.1.15,2013-06-24 04:04:00,
2013-06-24 00:05:00,66.5,63.8,30.02,NNW,328,0.0,7.0,91,0.00,,,0.00,Wunderground v.1.15,2013-06-24 04:05:00,
2013-06-24 00:10:00,66.2,63.8,30.01,NNW,328,0.0,7.0,92,0.00,,,0.00,Wunderground v.1.15,2013-06-24 04:10:00,
2013-06-24 00:15:00,66.2,63.8,30.02,NNW,328,0.0,7.0,92,0.00,,,0.00,Wunderground v.1.15,2013-06-24 04:15:00,
2013-06-24 00:20:00,66.0,63.6,30.02,NNW,327,0.0,7.0,92,0.00,,,0.00,Wunderground v.1.15,2013-06-24 04:20:00,
2013-06-24 00:25:00,65.9,63.5,30.02,NNW,327,0.0,7.0,92,0.00,,,0.00,Wunderground v.1.15,2013-06-24 04:25:00,
2013-06-24 00:30:00,65.8,63.7,30.02,NNW,328,0.0,7.0,93,0.00,,,0.00,Wunderground v.1.15,2013-06-24 04:30:00,
2013-06-24 00:35:00,65.9,63.8,30.02,NNW,327,0.0,7.0,93,0.00,,,0.00,Wunderground v.1.15,2013-06-24 04:35:00,
2013-06-24 00:41:00,66.2,64.1,30.02,NNW,328,0.0,7.0,93,0.00,,,0.00,Wunderground v.1.15,2013-06-24 04:41:00,
2013-06-24 00:46:00,66.3,64.2,30.02,NNW,327,0.0,7.0,93,0.00,,,0.00,Wunderground v.1.15,2013-06-24 04:46:00,
2013-06-24 00:51:00,66.1,64.0,30.02,NNW,327,0.0,7.0,93,0.00,,,0.00,Wunderground v.1.15,2013-06-24 04:51:00,
2013-06-24 00:56:00,66.0,63.9,30.02,NNW,327,0.0,7.0,93,0.00,,,0.00,Wunderground v.1.15,2013-06-24 04:56:00,
2013-06-24 01:01:00,65.9,63.8,30.02,NNW,328,0.0,7.0,93,0.00,,,0.00,Wunderground v.1.15,2013-06-24 05:01:00,
2013-06-24 01:06:00,66.1,64.0,30.02,NNW,328,0.0,7.0,93,0.00,,,0.00,Wunderground v.1.15,2013-06-24 05:06:00,
2013-06-24 01:11:00,66.0,63.9,30.02,NNW,327,0.0,7.0,93,0.00,,,0.00,Wunderground v.1.15,2013-06-24 05:11:00,
2013-06-24 01:16:00,65.9,63.8,30.02,NNW,328,0.0,7.0,93,0.00,,,0.00,Wunderground v.1.15,2013-06-24 05:16:00,
2013-06-24 01:22:00,65.9,63.8,30.02,NNW,327,0.0,7.0,93,0.00,,,0.00,Wunderground v.1.15,2013-06-24 05:22:00,
2013-06-24 01:27:00,66.0,64.2,30.01,NNW,328,0.0,7.0,94,0.00,,,0.00,Wunderground v.1.15,2013-06-24 05:27:00,
2013-06-24 01:32:00,66.3,64.2,30.01,NE,44,0.0,7.0,93,0.00,,,0.00,Wunderground v.1.15,2013-06-24 05:32:00,
2013-06-24 01:37:00,66.6,64.5,30.01,NE,44,0.0,7.0,93,0.00,,,0.00,Wunderground v.1.15,2013-06-24 05:37:00,
2013-06-24 01:42:00,66.9,64.8,30.01,NE,47,0.0,7.0,93,0.00,,,0.00,Wunderground v.1.15,2013-06-24 05:42:00,
2013-06-24 01:48:00,66.9,64.5,30.01,North,5,0.0,7.0,92,0.00,,,0.00,Wunderground v.1.15,2013-06-24 05:48:00,
2013-06-24 01:53:00,67.0,64.6,30.01,North,357,0.0,7.0,92,0.00,,,0.00,Wunderground v.1.15,2013-06-24 05:53:00,
2013-06-24 01:58:00,67.0,64.6,30.01,WNW,282,1.0,7.0,92,0.00,,,0.00,Wunderground v.1.15,2013-06-24 05:58:00,
2013-06-24 02:03:00,67.0,64.3,30.01,WNW,283,0.0,7.0,91,0.00,,,0.00,Wunderground v.1.15,2013-06-24 06:03:00,
2013-06-24 02:09:00,66.7,64.0,30.01,WNW,283,0.0,7.0,91,0.00,,,0.00,Wunderground v.1.15,2013-06-24 06:09:00,
2013-06-24 02:14:00,66.6,64.2,30.01,WNW,282,0.0,7.0,92,0.00,,,0.00,Wunderground v.1.15,2013-06-24 06:14:00,
2013-06-24 02:19:00,66.4,64.0,30.01,WNW,282,0.0,7.0,92,0.00,,,0.00,Wunderground v.1.15,2013-06-24 06:19:00,
2013-06-24 02:24:00,66.2,64.1,30.01,SW,231,0.0,7.0,93,0.00,,,0.00,Wunderground v.1.15,2013-06-24 06:24:00,
2013-06-24 02:30:00,66.6,64.5,30.01,WNW,303,0.0,7.0,93,0.00,,,0.00,Wunderground v.1.15,2013-06-24 06:30:00,
2013-06-24 02:36:00,66.9,64.5,30.00,NW,307,1.0,7.0,92,0.00,,,0.00,Wunderground v.1.15,2013-06-24 06:36:00,
2013-06-24 02:41:00,66.8,64.1,30.00,NW,306,0.0,7.0,91,0.00,,,0.00,Wunderground v.1.15,2013-06-24 06:41:00,
2013-06-24 02:46:00,66.4,64.0,30.00,North,8,0.0,7.0,92,0.00,,,0.00,Wunderground v.1.15,2013-06-24 06:46:00,
2013-06-24 02:51:00,66.1,63.7,30.00,North,8,0.0,7.0,92,0.00,,,0.00,Wunderground v.1.15,2013-06-24 06:51:00,
2013-06-24 02:57:00,65.9,63.8,30.00,West,280,0.0,7.0,93,0.00,,,0.00,Wunderground v.1.15,2013-06-24 06:57:00,
2013-06-24 03:02:00,65.9,63.8,30.00,WNW,288,0.0,7.0,93,0.00,,,0.00,Wunderground v.1.15,2013-06-24 07:02:00,
2013-06-24 03:07:00,66.1,64.0,30.00,West,264,0.0,7.0,93,0.00,,,0.00,Wunderground v.1.15,2013-06-24 07:07:00,
2013-06-24 03:13:00,66.0,63.6,30.00,West,266,0.0,7.0,92,0.00,,,0.00,Wunderground v.1.15,2013-06-24 07:13:00,
2013-06-24 03:18:00,65.7,63.6,30.00,West,265,0.0,7.0,93,0.00,,,0.00,Wunderground v.1.15,2013-06-24 07:18:00,
2013-06-24 03:23:00,65.7,63.9,30.00,West,266,0.0,7.0,94,0.00,,,0.00,Wunderground v.1.15,2013-06-24 07:23:00,
2013-06-24 03:28:00,65.8,64.0,30.00,SW,219,0.0,7.0,94,0.00,,,0.00,Wunderground v.1.15,2013-06-24 07:28:00,
2013-06-24 03:33:00,65.9,63.8,30.00,WSW,238,0.0,7.0,93,0.00,,,0.00,Wunderground v.1.15,2013-06-24 07:33:00,
2013-06-24 03:38:00,65.8,63.7,30.00,West,277,0.0,7.0,93,0.00,,,0.00,Wunderground v.1.15,2013-06-24 07:38:00,
2013-06-24 03:44:00,65.8,63.7,30.00,West,276,0.0,7.0,93,0.00,,,0.00,Wunderground v.1.15,2013-06-24 07:44:00,
2013-06-24 03:50:00,65.7,63.6,30.00,West,277,0.0,7.0,93,0.00,,,0.00,Wunderground v.1.15,2013-06-24 07:50:00,
2013-06-24 03:56:00,65.7,63.9,30.00,West,277,0.0,7.0,94,0.00,,,0.00,Wunderground v.1.15,2013-06-24 07:56:00,
2013-06-24 04:02:00,65.8,64.0,30.00,West,277,0.0,7.0,94,0.00,,,0.00,Wunderground v.1.15,2013-06-24 08:02:00,
2013-06-24 04:09:00,65.8,64.0,30.00,West,277,0.0,7.0,94,0.00,,,0.00,Wunderground v.1.15,2013-06-24 08:09:00,
2013-06-24 04:17:00,66.1,64.3,30.00,West,267,0.0,7.0,94,0.00,,,0.00,Wunderground v.1.15,2013-06-24 08:17:00,
2013-06-24 04:22:00,66.2,64.1,30.00,SSE,166,0.0,7.0,93,0.00,,,0.00,Wunderground v.1.15,2013-06-24 08:22:00,
2013-06-24 04:28:00,66.2,64.1,30.00,SSE,166,0.0,7.0,93,0.00,,,0.00,Wunderground v.1.15,2013-06-24 08:28:00,
2013-06-24 04:33:00,65.9,63.8,30.00,SSE,166,0.0,7.0,93,0.00,,,0.00,Wunderground v.1.15,2013-06-24 08:33:00,
2013-06-24 04:38:00,65.9,64.1,30.00,SE,141,0.0,7.0,94,0.00,,,0.00,Wunderground v.1.15,2013-06-24 08:38:00,
2013-06-24 04:43:00,66.0,63.9,29.99,SE,141,0.0,7.0,93,0.00,,,0.00,Wunderground v.1.15,2013-06-24 08:43:00,
2013-06-24 04:48:00,66.0,63.9,30.00,SE,141,0.0,7.0,93,0.00,,,0.00,Wunderground v.1.15,2013-06-24 08:48:00,
2013-06-24 04:53:00,65.9,63.8,30.00,SE,141,0.0,7.0,93,0.00,,,0.00,Wunderground v.1.15,2013-06-24 08:53:00,
2013-06-24 04:58:00,66.0,63.9,30.00,SE,141,0.0,7.0,93,0.00,,,0.00,Wunderground v.1.15,2013-06-24 08:58:00,
2013-06-24 05:03:00,66.2,64.1,30.00,SE,141,0.0,7.0,93,0.00,,,0.00,Wunderground v.1.15,2013-06-24 09:03:00,
2013-06-24 05:09:00,66.1,64.0,30.00,SE,135,0.0,7.0,93,0.00,,,0.00,Wunderground v.1.15,2013-06-24 09:09:00,
2013-06-24 05:15:00,65.9,63.8,30.00,SE,135,0.0,7.0,93,0.00,,,0.00,Wunderground v.1.15,2013-06-24 09:15:00,
2013-06-24 05:20:00,65.9,63.8,30.00,SE,135,0.0,7.0,93,0.00,,,0.00,Wunderground v.1.15,2013-06-24 09:20:00,
2013-06-24 05:26:00,66.0,63.9,30.00,SSW,194,0.0,7.0,93,0.00,,,0.00,Wunderground v.1.15,2013-06-24 09:26:00,
2013-06-24 05:32:00,66.3,63.9,30.00,SSW,194,0.0,7.0,92,0.00,,,0.00,Wunderground v.1.15,2013-06-24 09:32:00,
2013-06-24 05:37:00,66.5,64.1,30.00,SSW,195,0.0,7.0,92,0.00,,,0.00,Wunderground v.1.15,2013-06-24 09:37:00,
2013-06-24 05:42:00,66.6,63.9,30.00,SE,128,0.0,7.0,91,0.00,,,0.00,Wunderground v.1.15,2013-06-24 09:42:00,
2013-06-24 05:47:00,66.8,64.1,30.00,SE,128,0.0,7.0,91,0.00,,,0.00,Wunderground v.1.15,2013-06-24 09:47:00,
2013-06-24 05:52:00,66.9,63.9,30.01,ESE,103,0.0,7.0,90,0.00,,,0.00,Wunderground v.1.15,2013-06-24 09:52:00,
2013-06-24 05:57:00,67.0,64.0,30.01,NNE,33,0.0,7.0,90,0.00,,,0.00,Wunderground v.1.15,2013-06-24 09:57:00,
2013-06-24 06:02:00,67.1,64.1,30.00,NNE,25,0.0,7.0,90,0.00,,,0.00,Wunderground v.1.15,2013-06-24 10:02:00,
2013-06-24 06:07:00,67.0,64.0,30.01,NNE,25,0.0,7.0,90,0.00,,,0.00,Wunderground v.1.15,2013-06-24 10:07:00,
2013-06-24 06:12:00,67.0,64.0,30.01,NE,36,0.0,7.0,90,0.00,,,0.00,Wunderground v.1.15,2013-06-24 10:12:00,
2013-06-24 06:17:00,67.0,64.0,30.01,ESE,122,0.0,7.0,90,0.00,,,0.00,Wunderground v.1.15,2013-06-24 10:17:00,
2013-06-24 06:23:00,67.0,64.3,30.01,ESE,123,0.0,7.0,91,0.00,,,0.00,Wunderground v.1.15,2013-06-24 10:23:00,
2013-06-24 06:29:00,66.9,64.2,30.02,ESE,123,0.0,7.0,91,0.00,,,0.00,Wunderground v.1.15,2013-06-24 10:29:00,
2013-06-24 06:34:00,66.9,64.2,30.02,ESE,122,0.0,7.0,91,0.00,,,0.00,Wunderground v.1.15,2013-06-24 10:34:00,
2013-06-24 06:39:00,66.9,64.2,30.02,ESE,123,0.0,7.0,91,0.00,,,0.00,Wunderground v.1.15,2013-06-24 10:39:00,
2013-06-24 06:46:00,67.2,64.5,30.02,ESE,123,0.0,7.0,91,0.00,,,0.00,Wunderground v.1.15,2013-06-24 10:46:00,
2013-06-24 06:52:00,67.6,64.6,30.02,ESE,123,0.0,7.0,90,0.00,,,0.00,Wunderground v.1.15,2013-06-24 10:52:00,
2013-06-24 06:57:00,68.2,65.2,30.02,ESE,123,0.0,7.0,90,0.00,,,0.00,Wunderground v.1.15,2013-06-24 10:57:00,
2013-06-24 07:02:00,69.0,65.9,30.02,SE,131,0.0,7.0,90,0.00,,,0.00,Wunderground v.1.15,2013-06-24 11:02:00,
2013-06-24 07:07:00,70.1,66.0,30.02,WSW,250,0.0,7.0,87,0.00,,,0.00,Wunderground v.1.15,2013-06-24 11:07:00,
2013-06-24 07:12:00,70.9,66.2,30.02,WSW,250,0.0,7.0,85,0.00,,,0.00,Wunderground v.1.15,2013-06-24 11:12:00,
2013-06-24 07:17:00,71.1,66.4,30.02,SSE,152,0.0,7.0,85,0.00,,,0.00,Wunderground v.1.15,2013-06-24 11:17:00,
2013-06-24 07:23:00,71.1,66.4,30.02,SW,227,0.0,7.0,85,0.00,,,0.00,Wunderground v.1.15,2013-06-24 11:23:00,
2013-06-24 07:28:00,71.3,66.6,30.02,SW,225,0.0,7.0,85,0.00,,,0.00,Wunderground v.1.15,2013-06-24 11:28:00,
2013-06-24 07:33:00,71.7,66.6,30.02,West,269,0.0,7.0,84,0.00,,,0.00,Wunderground v.1.15,2013-06-24 11:33:00,
2013-06-24 07:38:00,72.3,67.2,30.02,SE,132,0.0,7.0,84,0.00,,,0.00,Wunderground v.1.15,2013-06-24 11:38:00,
2013-06-24 07:43:00,72.7,66.9,30.02,SW,218,1.0,7.0,82,0.00,,,0.00,Wunderground v.1.15,2013-06-24 11:43:00,
2013-06-24 07:48:00,73.3,67.5,30.02,West,275,1.0,7.0,82,0.00,,,0.00,Wunderground v.1.15,2013-06-24 11:48:00,
2013-06-24 07:53:00,73.9,67.7,30.02,North,3,1.0,7.0,81,0.00,,,0.00,Wunderground v.1.15,2013-06-24 11:53:00,
2013-06-24 07:58:00,74.3,67.7,30.02,WNW,297,1.0,7.0,80,0.00,,,0.00,Wunderground v.1.15,2013-06-24 11:58:00,
2013-06-24 08:03:00,74.7,68.1,30.02,WSW,243,1.0,7.0,80,0.00,,,0.00,Wunderground v.1.15,2013-06-24 12:03:00,
2013-06-24 08:08:00,74.8,67.8,30.02,WNW,300,1.0,7.0,79,0.00,,,0.00,Wunderground v.1.15,2013-06-24 12:08:00,
2013-06-24 08:14:00,75.4,68.4,30.02,SW,216,1.0,7.0,79,0.00,,,0.00,Wunderground v.1.15,2013-06-24 12:14:00,
2013-06-24 08:20:00,76.3,68.9,30.02,SW,226,1.0,7.0,78,0.00,,,0.00,Wunderground v.1.15,2013-06-24 12:20:00,
2013-06-24 08:25:00,76.4,68.3,30.02,NW,304,1.0,7.0,76,0.00,,,0.00,Wunderground v.1.15,2013-06-24 12:25:00,
2013-06-24 08:30:00,75.9,68.2,30.02,SW,221,2.0,2.0,77,0.00,,,0.00,Wunderground v.1.15,2013-06-24 12:30:00,
2013-06-24 08:35:00,75.9,68.2,30.02,SW,222,2.0,7.0,77,0.00,,,0.00,Wunderground v.1.15,2013-06-24 12:35:00,
2013-06-24 08:40:00,75.5,67.8,30.02,SSE,167,2.0,2.0,77,0.00,,,0.00,Wunderground v.1.15,2013-06-24 12:40:00,
2013-06-24 08:45:00,75.5,67.8,30.02,WNW,297,2.0,7.0,77,0.00,,,0.00,Wunderground v.1.15,2013-06-24 12:45:00,
2013-06-24 08:50:00,75.3,67.6,30.02,NNW,330,2.0,2.0,77,0.00,,,0.00,Wunderground v.1.15,2013-06-24 12:50:00,
2013-06-24 08:56:00,75.4,67.7,30.02,West,278,2.0,7.0,77,0.00,,,0.00,Wunderground v.1.15,2013-06-24 12:56:00,
2013-06-24 09:01:00,75.6,68.6,30.02,North,9,2.0,7.0,79,0.00,,,0.00,Wunderground v.1.15,2013-06-24 13:01:00,
2013-06-24 09:06:00,76.0,68.6,30.02,WNW,293,2.0,7.0,78,0.00,,,0.00,Wunderground v.1.15,2013-06-24 13:06:00,
2013-06-24 09:11:00,76.5,68.4,30.02,SW,219,1.0,3.0,76,0.00,,,0.00,Wunderground v.1.15,2013-06-24 13:11:00,
2013-06-24 09:17:00,76.8,67.9,30.01,NE,37,1.0,7.0,74,0.00,,,0.00,Wunderground v.1.15,2013-06-24 13:17:00,
2013-06-24 09:22:00,76.7,68.2,30.01,SW,229,2.0,7.0,75,0.00,,,0.00,Wunderground v.1.15,2013-06-24 13:22:00,
2013-06-24 09:28:00,76.9,68.8,30.01,NW,306,2.0,7.0,76,0.00,,,0.00,Wunderground v.1.15,2013-06-24 13:28:00,
2013-06-24 09:33:00,76.7,68.2,30.01,NNE,25,2.0,7.0,75,0.00,,,0.00,Wunderground v.1.15,2013-06-24 13:33:00,
2013-06-24 09:38:00,77.0,68.9,30.01,West,262,2.0,7.0,76,0.00,,,0.00,Wunderground v.1.15,2013-06-24 13:38:00,
2013-06-24 09:44:00,77.8,70.4,30.01,NNW,340,1.0,7.0,78,0.00,,,0.00,Wunderground v.1.15,2013-06-24 13:44:00,
2013-06-24 09:50:00,77.5,68.9,30.01,West,276,1.0,7.0,75,0.00,,,0.00,Wunderground v.1.15,2013-06-24 13:50:00,
2013-06-24 09:56:00,77.3,68.8,30.01,SW,224,2.0,7.0,75,0.00,,,0.00,Wunderground v.1.15,2013-06-24 13:56:00,
2013-06-24 10:03:00,78.0,69.8,30.01,West,260,2.0,7.0,76,0.00,,,0.00,Wunderground v.1.15,2013-06-24 14:03:00,
2013-06-24 10:08:00,78.4,69.0,30.01,NNW,337,2.0,7.0,73,0.00,,,0.00,Wunderground v.1.15,2013-06-24 14:08:00,
2013-06-24 10:13:00,78.3,68.9,30.01,WNW,284,2.0,7.0,73,0.00,,,0.00,Wunderground v.1.15,2013-06-24 14:13:00,
2013-06-24 10:18:00,78.4,69.0,30.01,NW,304,2.0,7.0,73,0.00,,,0.00,Wunderground v.1.15,2013-06-24 14:18:00,
2013-06-24 10:25:00,79.1,69.3,30.01,NW,305,2.0,7.0,72,0.00,,,0.00,Wunderground v.1.15,2013-06-24 14:25:00,
2013-06-24 10:30:00,79.6,69.4,30.01,SW,235,1.0,7.0,71,0.00,,,0.00,Wunderground v.1.15,2013-06-24 14:30:00,
2013-06-24 10:35:00,79.6,69.8,30.01,West,259,1.0,7.0,72,0.00,,,0.00,Wunderground v.1.15,2013-06-24 14:35:00,
2013-06-24 10:41:00,79.8,69.6,30.01,South,176,2.0,7.0,71,0.00,,,0.00,Wunderground v.1.15,2013-06-24 14:41:00,
2013-06-24 10:46:00,79.9,69.7,30.01,West,263,2.0,7.0,71,0.00,,,0.00,Wunderground v.1.15,2013-06-24 14:46:00,
2013-06-24 10:51:00,79.9,70.9,30.01,NNW,340,2.0,7.0,74,0.00,,,0.00,Wunderground v.1.15,2013-06-24 14:51:00,
2013-06-24 10:56:00,79.8,69.6,30.00,SW,226,2.0,7.0,71,0.00,,,0.00,Wunderground v.1.15,2013-06-24 14:56:00,
2013-06-24 11:01:00,79.8,69.6,30.00,WNW,291,1.0,7.0,71,0.00,,,0.00,Wunderground v.1.15,2013-06-24 15:01:00,
2013-06-24 11:07:00,80.3,69.6,30.00,NNE,27,2.0,7.0,70,0.00,,,0.00,Wunderground v.1.15,2013-06-24 15:07:00,
2013-06-24 11:13:00,80.1,70.3,30.01,West,279,2.0,7.0,72,0.00,,,0.00,Wunderground v.1.15,2013-06-24 15:13:00,
2013-06-24 11:19:00,79.7,69.5,30.00,NW,326,2.0,7.0,71,0.00,,,0.00,Wunderground v.1.15,2013-06-24 15:19:00,
2013-06-24 11:24:00,80.2,69.9,30.00,SW,221,2.0,7.0,71,0.00,,,0.00,Wunderground v.1.15,2013-06-24 15:24:00,
2013-06-24 11:30:00,80.3,70.4,30.01,WSW,257,2.0,7.0,72,0.00,,,0.00,Wunderground v.1.15,2013-06-24 15:30:00,
2013-06-24 11:35:00,80.0,68.5,30.00,West,264,3.0,7.0,68,0.00,,,0.00,Wunderground v.1.15,2013-06-24 15:35:00,
2013-06-24 11:41:00,80.7,70.8,30.00,South,188,3.0,7.0,72,0.00,,,0.00,Wunderground v.1.15,2013-06-24 15:41:00,
2013-06-24 11:46:00,81.1,70.0,30.00,WSW,246,3.0,7.0,69,0.00,,,0.00,Wunderground v.1.15,2013-06-24 15:46:00,
2013-06-24 11:51:00,81.6,70.0,30.00,SSW,205,2.0,7.0,68,0.00,,,0.00,Wunderground v.1.15,2013-06-24 15:51:00,
2013-06-24 11:56:00,81.1,70.0,30.00,SSW,200,3.0,9.0,69,0.00,,,0.00,Wunderground v.1.15,2013-06-24 15:56:00,
2013-06-24 12:02:00,82.0,69.1,30.00,West,267,3.0,7.0,65,0.00,,,0.00,Wunderground v.1.15,2013-06-24 16:02:00,
2013-06-24 12:07:00,82.6,71.0,30.00,West,259,3.0,7.0,68,0.00,,,0.00,Wunderground v.1.15,2013-06-24 16:07:00,
2013-06-24 12:13:00,82.9,71.3,30.00,SSW,201,3.0,7.0,68,0.00,,,0.00,Wunderground v.1.15,2013-06-24 16:13:00,
2013-06-24 12:19:00,83.0,68.6,30.00,South,184,4.0,7.0,62,0.00,,,0.00,Wunderground v.1.15,2013-06-24 16:19:00,
2013-06-24 12:24:00,83.2,68.3,30.00,WSW,240,4.0,7.0,61,0.00,,,0.00,Wunderground v.1.15,2013-06-24 16:24:00,
2013-06-24 12:29:00,83.3,69.8,30.00,West,278,4.0,7.0,64,0.00,,,0.00,Wunderground v.1.15,2013-06-24 16:29:00,
2013-06-24 12:34:00,83.6,69.7,30.00,SW,221,4.0,7.0,63,0.00,,,0.00,Wunderground v.1.15,2013-06-24 16:34:00,
2013-06-24 12:40:00,83.7,69.3,30.00,WNW,301,3.0,7.0,62,0.00,,,0.00,Wunderground v.1.15,2013-06-24 16:40:00,
2013-06-24 12:45:00,84.4,70.9,30.00,South,190,3.0,7.0,64,0.00,,,0.00,Wunderground v.1.15,2013-06-24 16:45:00,
2013-06-24 12:50:00,84.3,69.9,30.00,South,174,3.0,7.0,62,0.00,,,0.00,Wunderground v.1.15,2013-06-24 16:50:00,
2013-06-24 12:55:00,84.7,70.7,30.00,West,259,3.0,7.0,63,0.00,,,0.00,Wunderground v.1.15,2013-06-24 16:55:00,
2013-06-24 13:01:00,84.8,68.9,29.99,SSW,201,3.0,7.0,59,0.00,,,0.00,Wunderground v.1.15,2013-06-24 17:01:00,
2013-06-24 13:06:00,84.1,68.7,29.99,WSW,252,4.0,7.0,60,0.00,,,0.00,Wunderground v.1.15,2013-06-24 17:06:00,
2013-06-24 13:11:00,84.5,68.6,29.99,NW,307,4.0,5.0,59,0.00,,,0.00,Wunderground v.1.15,2013-06-24 17:11:00,
2013-06-24 13:16:00,83.7,67.4,29.99,WNW,294,4.0,7.0,58,0.00,,,0.00,Wunderground v.1.15,2013-06-24 17:16:00,
2013-06-24 13:21:00,84.1,69.2,29.99,WSW,238,4.0,5.0,61,0.00,,,0.00,Wunderground v.1.15,2013-06-24 17:21:00,
2013-06-24 13:27:00,84.3,69.9,29.98,West,263,4.0,7.0,62,0.00,,,0.00,Wunderground v.1.15,2013-06-24 17:27:00,
2013-06-24 13:33:00,84.7,68.8,29.98,WNW,284,4.0,7.0,59,0.00,,,0.00,Wunderground v.1.15,2013-06-24 17:33:00,
2013-06-24 13:38:00,84.7,68.8,29.98,WNW,284,4.0,7.0,59,0.00,,,0.00,Wunderground v.1.15,2013-06-24 17:38:00,
2013-06-24 13:43:00,83.9,69.0,29.98,NNW,328,3.0,7.0,61,0.00,,,0.00,Wunderground v.1.15,2013-06-24 17:43:00,
2013-06-24 13:48:00,82.7,68.8,29.97,West,281,3.0,7.0,63,0.00,,,0.00,Wunderground v.1.15,2013-06-24 17:48:00,
2013-06-24 13:53:00,82.0,68.6,29.97,WNW,284,2.0,7.0,64,0.00,,,0.00,Wunderground v.1.15,2013-06-24 17:53:00,
2013-06-24 13:59:00,81.1,67.8,29.97,SSE,156,2.0,7.0,64,0.00,,,0.00,Wunderground v.1.15,2013-06-24 17:59:00,
2013-06-24 14:04:00,80.7,68.7,29.97,SW,231,2.0,7.0,67,0.00,,,0.00,Wunderground v.1.15,2013-06-24 18:04:00,
2013-06-24 14:09:00,80.7,69.6,29.97,SW,214,1.0,7.0,69,0.00,,,0.00,Wunderground v.1.15,2013-06-24 18:09:00,
2013-06-24 14:14:00,80.7,68.7,29.96,South,180,1.0,7.0,67,0.00,,,0.00,Wunderground v.1.15,2013-06-24 18:14:00,
2013-06-24 14:19:00,80.5,69.0,29.96,West,271,1.0,7.0,68,0.00,,,0.00,Wunderground v.1.15,2013-06-24 18:19:00,
2013-06-24 14:24:00,80.4,69.7,29.96,SE,129,1.0,7.0,70,0.00,,,0.00,Wunderground v.1.15,2013-06-24 18:24:00,
2013-06-24 14:29:00,80.3,68.8,29.96,SW,221,1.0,7.0,68,0.00,,,0.00,Wunderground v.1.15,2013-06-24 18:29:00,
2013-06-24 14:34:00,80.1,68.6,29.96,NW,315,2.0,7.0,68,0.00,,,0.00,Wunderground v.1.15,2013-06-24 18:34:00,
2013-06-24 14:39:00,79.9,67.5,29.96,WSW,243,2.0,7.0,66,0.00,,,0.00,Wunderground v.1.15,2013-06-24 18:39:00,
2013-06-24 14:44:00,79.6,66.3,29.96,West,273,2.0,7.0,64,0.00,,,0.00,Wunderground v.1.15,2013-06-24 18:44:00,
2013-06-24 14:49:00,79.6,66.8,29.95,SE,141,1.0,7.0,65,0.00,,,0.00,Wunderground v.1.15,2013-06-24 18:49:00,
2013-06-24 14:54:00,79.4,67.5,29.95,SW,219,1.0,7.0,67,0.00,,,0.00,Wunderground v.1.15,2013-06-24 18:54:00,
2013-06-24 15:00:00,79.4,67.5,29.95,SW,219,1.0,7.0,67,0.00,,,0.00,Wunderground v.1.15,2013-06-24 19:00:00,
2013-06-24 15:06:00,79.5,69.3,29.94,WSW,240,1.0,7.0,71,0.00,,,0.00,Wunderground v.1.15,2013-06-24 19:06:00,
2013-06-24 15:11:00,79.6,70.2,29.94,SSW,203,0.0,7.0,73,0.00,,,0.00,Wunderground v.1.15,2013-06-24 19:11:00,
2013-06-24 15:17:00,79.6,70.6,29.93,SSW,200,0.0,7.0,74,0.00,,,0.00,Wunderground v.1.15,2013-06-24 19:17:00,
2013-06-24 15:23:00,79.6,71.0,29.93,SW,216,0.0,7.0,75,0.00,,,0.00,Wunderground v.1.15,2013-06-24 19:23:00,
2013-06-24 15:29:00,80.0,71.0,29.93,SW,229,1.0,7.0,74,0.00,,,0.00,Wunderground v.1.15,2013-06-24 19:29:00,
2013-06-24 15:34:00,80.3,70.4,29.93,West,268,1.0,7.0,72,0.00,,,0.00,Wunderground v.1.15,2013-06-24 19:34:00,
2013-06-24 15:39:00,80.3,70.9,29.92,SSE,148,1.0,7.0,73,0.00,,,0.00,Wunderground v.1.15,2013-06-24 19:39:00,
2013-06-24 15:45:00,79.9,69.7,29.92,SW,218,2.0,7.0,71,0.00,,,0.00,Wunderground v.1.15,2013-06-24 19:45:00,
2013-06-24 15:50:00,79.6,69.8,29.92,WSW,250,2.0,7.0,72,0.00,,,0.00,Wunderground v.1.15,2013-06-24 19:50:00,
2013-06-24 15:55:00,79.4,70.4,29.92,SW,229,1.0,7.0,74,0.00,,,0.00,Wunderground v.1.15,2013-06-24 19:55:00,
2013-06-24 16:00:00,79.2,70.6,29.91,SW,227,2.0,2.0,75,0.00,,,0.00,Wunderground v.1.15,2013-06-24 20:00:00,
2013-06-24 16:05:00,79.3,69.9,29.91,WSW,248,2.0,7.0,73,0.00,,,0.00,Wunderground v.1.15,2013-06-24 20:05:00,
2013-06-24 16:10:00,79.4,70.0,29.92,SSW,195,2.0,2.0,73,0.00,,,0.00,Wunderground v.1.15,2013-06-24 20:10:00,
2013-06-24 16:15:00,79.7,70.7,29.92,West,268,2.0,7.0,74,0.00,,,0.00,Wunderground v.1.15,2013-06-24 20:15:00,
2013-06-24 16:20:00,80.1,70.7,29.92,West,271,2.0,2.0,73,0.00,,,0.00,Wunderground v.1.15,2013-06-24 20:20:00,
2013-06-24 16:26:00,80.3,70.9,29.92,WSW,257,2.0,7.0,73,0.00,,,0.00,Wunderground v.1.15,2013-06-24 20:26:00,
2013-06-24 16:31:00,80.4,70.5,29.93,West,277,2.0,7.0,72,0.00,,,0.00,Wunderground v.1.15,2013-06-24 20:31:00,
2013-06-24 16:37:00,79.7,68.6,29.94,West,277,3.0,7.0,69,0.00,,,0.00,Wunderground v.1.15,2013-06-24 20:37:00,
2013-06-24 16:42:00,77.9,65.2,29.94,NW,306,3.0,7.0,65,0.00,,,0.00,Wunderground v.1.15,2013-06-24 20:42:00,
2013-06-24 16:47:00,76.2,61.8,29.95,North,349,3.0,7.0,61,0.00,,,0.00,Wunderground v.1.15,2013-06-24 20:47:00,
2013-06-24 16:53:00,74.6,61.6,29.94,NW,315,3.0,7.0,64,0.00,,,0.00,Wunderground v.1.15,2013-06-24 20:53:00,
2013-06-24 16:58:00,73.6,61.1,29.95,WNW,288,2.0,7.0,65,0.00,,,0.00,Wunderground v.1.15,2013-06-24 20:58:00,
2013-06-24 17:04:00,72.5,60.1,29.95,NW,316,2.0,7.0,65,0.00,,,0.00,Wunderground v.1.15,2013-06-24 21:04:00,
2013-06-24 17:09:00,71.8,60.2,29.95,WNW,283,3.0,7.0,67,0.00,,,0.00,Wunderground v.1.15,2013-06-24 21:09:00,
2013-06-24 17:15:00,71.2,60.1,29.96,NW,308,2.0,7.0,68,0.00,,,0.00,Wunderground v.1.15,2013-06-24 21:15:00,
2013-06-24 17:21:00,70.7,59.6,29.99,WNW,284,3.0,7.0,68,0.00,,,0.00,Wunderground v.1.15,2013-06-24 21:21:00,
2013-06-24 17:26:00,70.3,60.1,29.99,NNW,328,4.0,7.0,70,0.00,,,0.00,Wunderground v.1.15,2013-06-24 21:26:00,
2013-06-24 17:31:00,69.6,60.2,30.00,WNW,287,5.0,8.0,72,0.00,,,0.00,Wunderground v.1.15,2013-06-24 21:31:00,
2013-06-24 17:36:00,68.8,60.2,30.00,WNW,302,5.0,8.0,74,0.00,,,0.00,Wunderground v.1.15,2013-06-24 21:36:00,
2013-06-24 17:41:00,68.4,59.8,30.00,NW,319,4.0,7.0,74,0.00,,,0.00,Wunderground v.1.15,2013-06-24 21:41:00,
2013-06-24 17:46:00,67.9,60.8,29.99,NW,323,4.0,7.0,78,0.00,,,0.00,Wunderground v.1.15,2013-06-24 21:46:00,
2013-06-24 17:52:00,67.1,61.4,29.99,NW,315,4.0,7.0,82,0.00,,,0.00,Wunderground v.1.15,2013-06-24 21:52:00,
2013-06-24 17:57:00,66.7,62.0,29.98,NW,314,3.0,7.0,85,0.00,,,0.00,Wunderground v.1.15,2013-06-24 21:57:00,
2013-06-24 18:02:00,66.2,62.2,29.98,NW,305,3.0,7.0,87,0.00,,,0.00,Wunderground v.1.15,2013-06-24 22:02:00,
2013-06-24 18:07:00,65.7,62.4,29.98,NW,323,3.0,7.0,89,0.00,,,0.00,Wunderground v.1.15,2013-06-24 22:07:00,
2013-06-24 18:13:00,65.1,61.8,29.98,NW,314,2.0,7.0,89,0.00,,,0.01,Wunderground v.1.15,2013-06-24 22:13:00,
2013-06-24 18:18:00,64.8,61.8,29.98,SSW,197,2.0,7.0,90,0.00,,,0.01,Wunderground v.1.15,2013-06-24 22:18:00,
2013-06-24 18:24:00,64.5,61.8,29.99,SSE,153,1.0,7.0,91,0.06,,,0.02,Wunderground v.1.15,2013-06-24 22:24:00,
2013-06-24 18:29:00,64.2,61.5,29.98,SSE,160,1.0,7.0,91,0.06,,,0.02,Wunderground v.1.15,2013-06-24 22:29:00,
2013-06-24 18:34:00,64.0,61.3,29.98,SSW,209,0.0,7.0,91,0.04,,,0.02,Wunderground v.1.15,2013-06-24 22:34:00,
2013-06-24 18:39:00,63.9,61.5,29.98,WSW,249,0.0,7.0,92,0.00,,,0.02,Wunderground v.1.15,2013-06-24 22:39:00,
2013-06-24 18:44:00,63.9,61.5,29.98,SW,233,1.0,7.0,92,0.00,,,0.02,Wunderground v.1.15,2013-06-24 22:44:00,
2013-06-24 18:50:00,63.9,61.8,29.98,SSW,193,0.0,7.0,93,0.00,,,0.02,Wunderground v.1.15,2013-06-24 22:50:00,
2013-06-24 18:55:00,63.9,61.8,29.97,SE,139,0.0,7.0,93,0.00,,,0.02,Wunderground v.1.15,2013-06-24 22:55:00,
2013-06-24 19:00:00,63.9,61.8,29.97,SSW,195,0.0,7.0,93,0.00,,,0.02,Wunderground v.1.15,2013-06-24 23:00:00,
2013-06-24 19:05:00,64.1,62.3,29.97,South,187,1.0,7.0,94,0.00,,,0.02,Wunderground v.1.15,2013-06-24 23:05:00,
2013-06-24 19:10:00,64.1,62.3,29.97,SE,134,0.0,7.0,94,0.00,,,0.02,Wunderground v.1.15,2013-06-24 23:10:00,
2013-06-24 19:15:00,64.1,62.3,29.96,SSE,162,0.0,7.0,94,0.00,,,0.02,Wunderground v.1.15,2013-06-24 23:15:00,
2013-06-24 19:20:00,64.1,62.3,29.96,SE,135,0.0,7.0,94,0.00,,,0.02,Wunderground v.1.15,2013-06-24 23:20:00,
2013-06-24 19:25:00,64.1,62.3,29.95,SSE,159,0.0,7.0,94,0.00,,,0.02,Wunderground v.1.15,2013-06-24 23:25:00,
2013-06-24 19:30:00,64.1,62.3,29.95,SSE,158,0.0,7.0,94,0.00,,,0.02,Wunderground v.1.15,2013-06-24 23:30:00,
2013-06-24 19:36:00,64.2,62.4,29.95,NNW,331,0.0,7.0,94,0.00,,,0.02,Wunderground v.1.15,2013-06-24 23:36:00,
2013-06-24 19:41:00,63.9,61.8,29.95,SSW,207,0.0,7.0,93,0.00,,,0.02,Wunderground v.1.15,2013-06-24 23:41:00,
2013-06-24 19:46:00,63.8,61.7,29.95,SSW,209,0.0,7.0,93,0.00,,,0.02,Wunderground v.1.15,2013-06-24 23:46:00,
2013-06-24 19:51:00,63.8,61.7,29.95,SW,219,0.0,7.0,93,0.00,,,0.02,Wunderground v.1.15,2013-06-24 23:51:00,
2013-06-24 19:56:00,63.9,61.5,29.95,WSW,255,1.0,7.0,92,0.00,,,0.02,Wunderground v.1.15,2013-06-24 23:56:00,
2013-06-24 20:01:00,63.9,61.5,29.95,North,11,0.0,7.0,92,0.00,,,0.02,Wunderground v.1.15,2013-06-25 00:01:00,
2013-06-24 20:06:00,63.9,61.5,29.96,SW,225,0.0,7.0,92,0.00,,,0.02,Wunderground v.1.15,2013-06-25 00:06:00,
2013-06-24 20:11:00,64.0,61.3,29.95,SW,225,0.0,7.0,91,0.00,,,0.02,Wunderground v.1.15,2013-06-25 00:11:00,
2013-06-24 20:16:00,63.9,61.2,29.95,South,174,0.0,7.0,91,0.00,,,0.02,Wunderground v.1.15,2013-06-25 00:16:00,
2013-06-24 20:22:00,64.0,61.3,29.95,South,176,0.0,7.0,91,0.00,,,0.02,Wunderground v.1.15,2013-06-25 00:22:00,
2013-06-24 20:27:00,64.1,61.7,29.95,South,174,0.0,7.0,92,0.00,,,0.02,Wunderground v.1.15,2013-06-25 00:27:00,
2013-06-24 20:33:00,63.9,61.5,29.95,South,175,0.0,7.0,92,0.00,,,0.02,Wunderground v.1.15,2013-06-25 00:33:00,
2013-06-24 20:38:00,63.8,61.4,29.95,South,174,0.0,7.0,92,0.00,,,0.02,Wunderground v.1.15,2013-06-25 00:38:00,
2013-06-24 20:44:00,63.6,61.2,29.96,South,178,0.0,7.0,92,0.00,,,0.02,Wunderground v.1.15,2013-06-25 00:44:00,
2013-06-24 20:49:00,63.5,61.4,29.96,SSW,203,0.0,7.0,93,0.00,,,0.02,Wunderground v.1.15,2013-06-25 00:49:00,
2013-06-24 20:54:00,63.5,61.7,29.96,SSW,203,0.0,7.0,94,0.00,,,0.02,Wunderground v.1.15,2013-06-25 00:54:00,
2013-06-24 21:00:00,63.4,61.6,29.96,SSW,203,0.0,7.0,94,0.00,,,0.02,Wunderground v.1.15,2013-06-25 01:00:00,
2013-06-24 21:06:00,63.4,61.6,29.96,South,173,0.0,7.0,94,0.00,,,0.02,Wunderground v.1.15,2013-06-25 01:06:00,
2013-06-24 21:12:00,63.3,61.8,29.98,South,173,0.0,7.0,95,0.00,,,0.02,Wunderground v.1.15,2013-06-25 01:12:00,
2013-06-24 21:17:00,63.2,61.7,29.98,South,173,0.0,7.0,95,0.00,,,0.02,Wunderground v.1.15,2013-06-25 01:17:00,
2013-06-24 21:22:00,63.2,61.7,29.98,South,173,0.0,7.0,95,0.00,,,0.02,Wunderground v.1.15,2013-06-25 01:22:00,
2013-06-24 21:27:00,63.2,61.7,29.98,SSW,202,0.0,7.0,95,0.00,,,0.02,Wunderground v.1.15,2013-06-25 01:27:00,
2013-06-24 21:33:00,63.1,61.6,29.98,SSW,200,0.0,7.0,95,0.00,,,0.02,Wunderground v.1.15,2013-06-25 01:33:00,
2013-06-24 21:39:00,62.9,61.4,29.98,SSW,200,0.0,7.0,95,0.00,,,0.02,Wunderground v.1.15,2013-06-25 01:39:00,
2013-06-24 21:44:00,62.8,61.3,29.98,SSW,200,0.0,7.0,95,0.00,,,0.02,Wunderground v.1.15,2013-06-25 01:44:00,
2013-06-24 21:50:00,62.7,61.2,29.98,SSW,200,0.0,7.0,95,0.00,,,0.02,Wunderground v.1.15,2013-06-25 01:50:00,
2013-06-24 21:55:00,62.6,61.4,29.98,SSW,200,0.0,7.0,96,0.00,,,0.02,Wunderground v.1.15,2013-06-25 01:55:00,
2013-06-24 22:00:00,62.5,61.3,29.97,SSW,200,0.0,7.0,96,0.00,,,0.02,Wunderground v.1.15,2013-06-25 02:00:00,
2013-06-24 22:05:00,62.4,61.2,29.97,SSW,201,0.0,7.0,96,0.00,,,0.02,Wunderground v.1.15,2013-06-25 02:05:00,
2013-06-24 22:10:00,62.3,61.1,29.97,SSW,200,0.0,7.0,96,0.00,,,0.02,Wunderground v.1.15,2013-06-25 02:10:00,
2013-06-24 22:15:00,62.3,61.1,29.97,SSW,200,0.0,7.0,96,0.00,,,0.02,Wunderground v.1.15,2013-06-25 02:15:00,
2013-06-24 22:21:00,62.1,60.9,29.97,SSW,200,0.0,7.0,96,0.00,,,0.02,Wunderground v.1.15,2013-06-25 02:21:00,
2013-06-24 22:26:00,61.9,60.7,29.97,SSW,200,0.0,7.0,96,0.00,,,0.02,Wunderground v.1.15,2013-06-25 02:26:00,
2013-06-24 22:31:00,61.8,60.6,29.97,SSW,201,0.0,7.0,96,0.00,,,0.02,Wunderground v.1.15,2013-06-25 02:31:00,
2013-06-24 22:36:00,61.7,60.5,29.97,SSW,202,0.0,7.0,96,0.00,,,0.02,Wunderground v.1.15,2013-06-25 02:36:00,
2013-06-24 22:41:00,61.7,60.5,29.97,SSW,200,0.0,7.0,96,0.00,,,0.02,Wunderground v.1.15,2013-06-25 02:41:00,
2013-06-24 22:46:00,61.8,60.6,29.97,SSW,200,0.0,7.0,96,0.00,,,0.02,Wunderground v.1.15,2013-06-25 02:46:00,
2013-06-24 22:52:00,61.7,60.5,29.97,SSW,200,0.0,7.0,96,0.00,,,0.02,Wunderground v.1.15,2013-06-25 02:52:00,
2013-06-24 22:58:00,61.7,60.8,29.97,SSW,200,0.0,7.0,97,0.00,,,0.02,Wunderground v.1.15,2013-06-25 02:58:00,
2013-06-24 23:03:00,61.7,60.8,29.97,SSW,200,0.0,7.0,97,0.00,,,0.02,Wunderground v.1.15,2013-06-25 03:03:00,
2013-06-24 23:09:00,61.5,60.6,29.97,SSW,200,0.0,7.0,97,0.00,,,0.02,Wunderground v.1.15,2013-06-25 03:09:00,
2013-06-24 23:14:00,61.4,60.5,29.97,SSW,200,0.0,7.0,97,0.00,,,0.02,Wunderground v.1.15,2013-06-25 03:14:00,
2013-06-24 23:19:00,61.4,60.5,29.97,SSW,200,0.0,7.0,97,0.00,,,0.02,Wunderground v.1.15,2013-06-25 03:19:00,
2013-06-24 23:25:00,61.4,60.5,29.98,SSW,200,0.0,7.0,97,0.00,,,0.02,Wunderground v.1.15,2013-06-25 03:25:00,
2013-06-24 23:30:00,61.5,60.6,29.98,SSW,200,0.0,7.0,97,0.00,,,0.02,Wunderground v.1.15,2013-06-25 03:30:00,
2013-06-24 23:35:00,61.5,60.6,29.98,SSW,199,0.0,7.0,97,0.00,,,0.02,Wunderground v.1.15,2013-06-25 03:35:00,
2013-06-24 23:40:00,61.5,60.6,29.98,SSW,200,0.0,7.0,97,0.00,,,0.02,Wunderground v.1.15,2013-06-25 03:40:00,
2013-06-24 23:45:00,61.5,60.6,29.99,SSW,200,0.0,7.0,97,0.00,,,0.02,Wunderground v.1.15,2013-06-25 03:45:00,
2013-06-24 23:50:00,61.6,60.7,29.98,SSW,200,0.0,7.0,97,0.00,,,0.02,Wunderground v.1.15,2013-06-25 03:50:00,
2013-06-24 23:55:00,61.5,60.6,29.98,ENE,63,0.0,7.0,97,0.00,,,0.02,Wunderground v.1.15,2013-06-25 03:55:00,